Time,TemperatureF,DewpointF,PressureIn,WindDirection,WindDirectionDegrees,WindSpeedMPH,WindSpeedGustMPH,Humidity,HourlyPrecipIn,Conditions,Clouds,dailyrainin,SolarRadiationWatts/m^2,SoftwareType,DateUTC
2013-05-03 00:00:00,52.5,44.5,30.04,NNW,347,0.0,0.0,74,0.00,,,0.00,0.00,VWS V14.01,2013-05-03 04:00:00,
2013-05-03 00:01:00,52.6,44.2,30.04,NNW,347,0.0,0.0,73,0.00,,,0.00,0.00,VWS V14.01,2013-05-03 04:01:00,
2013-05-03 00:02:00,52.3,44.3,30.04,North,0,0.0,0.0,74,0.00,,,0.00,0.00,VWS V14.01,2013-05-03 04:02:00,
2013-05-03 00:03:00,52.5,44.5,30.04,NNW,347,0.0,0.0,74,0.00,,,0.00,0.00,VWS V14.01,2013-05-03 04:03:00,
2013-05-03 00:04:00,52.5,44.5,30.04,NNW,347,0.0,0.0,74,0.00,,,0.00,0.00,VWS V14.01,2013-05-03 04:04:00,
2013-05-03 00:05:00,52.5,44.5,30.04,NNW,347,0.0,0.0,74,0.00,,,0.00,0.00,VWS V14.01,2013-05-03 04:05:00,
2013-05-03 00:06:00,52.2,44.5,30.04,North,0,0.0,0.0,75,0.00,,,0.00,0.00,VWS V14.01,2013-05-03 04:06:00,
2013-05-03 00:07:00,52.2,44.5,30.04,North,350,0.0,0.0,75,0.00,,,0.00,0.00,VWS V14.01,2013-05-03 04:07:00,
2013-05-03 00:08:00,52.2,44.5,30.04,North,350,0.0,0.0,75,0.00,,,0.00,0.00,VWS V14.01,2013-05-03 04:08:00,
2013-05-03 00:09:00,52.2,44.5,30.04,North,350,0.0,0.0,75,0.00,,,0.00,0.00,VWS V14.01,2013-05-03 04:09:00,
2013-05-03 00:10:00,52.2,44.5,30.04,North,0,0.0,0.0,75,0.00,,,0.00,0.00,VWS V14.01,2013-05-03 04:10:00,
2013-05-03 00:11:00,52.0,44.3,30.04,North,350,0.0,0.0,75,0.00,,,0.00,0.00,VWS V14.01,2013-05-03 04:11:00,
2013-05-03 00:12:00,52.0,44.7,30.04,North,350,0.0,0.0,76,0.00,,,0.00,0.00,VWS V14.01,2013-05-03 04:12:00,
2013-05-03 00:13:00,52.0,44.7,30.04,North,350,0.0,0.0,76,0.00,,,0.00,0.00,VWS V14.01,2013-05-03 04:13:00,
2013-05-03 00:14:00,52.0,44.7,30.04,North,350,0.0,0.0,76,0.00,,,0.00,0.00,VWS V14.01,2013-05-03 04:14:00,
2013-05-03 00:15:00,52.0,44.3,30.04,North,350,0.0,0.0,75,0.00,,,0.00,0.00,VWS V14.01,2013-05-03 04:15:00,
2013-05-03 00:16:00,51.9,44.6,30.04,North,350,0.0,0.0,76,0.00,,,0.00,0.00,VWS V14.01,2013-05-03 04:16:00,
2013-05-03 00:17:00,51.9,44.6,30.04,North,350,0.0,0.0,76,0.00,,,0.00,0.00,VWS V14.01,2013-05-03 04:17:00,
2013-05-03 00:18:00,52.0,44.7,30.04,North,350,0.0,0.0,76,0.00,,,0.00,0.00,VWS V14.01,2013-05-03 04:18:00,
2013-05-03 00:19:00,51.9,44.6,30.04,North,350,0.0,0.0,76,0.00,,,0.00,0.00,VWS V14.01,2013-05-03 04:19:00,
2013-05-03 00:20:00,51.9,44.6,30.04,North,350,0.0,0.0,76,0.00,,,0.00,0.00,VWS V14.01,2013-05-03 04:20:00,
2013-05-03 00:21:00,51.7,44.4,30.04,North,350,0.0,0.0,76,0.00,,,0.00,0.00,VWS V14.01,2013-05-03 04:21:00,
2013-05-03 00:22:00,51.7,44.7,30.04,North,350,0.0,0.0,77,0.00,,,0.00,0.00,VWS V14.01,2013-05-03 04:22:00,
2013-05-03 00:23:00,51.9,44.6,30.04,North,350,0.0,0.0,76,0.00,,,0.00,0.00,VWS V14.01,2013-05-03 04:23:00,
2013-05-03 00:24:00,51.7,44.7,30.04,NNE,31,0.0,0.0,77,0.00,,,0.00,0.00,VWS V14.01,2013-05-03 04:24:00,
2013-05-03 00:25:00,51.7,44.7,30.04,NE,38,0.0,0.0,77,0.00,,,0.00,0.00,VWS V14.01,2013-05-03 04:25:00,
2013-05-03 00:26:00,51.6,44.6,30.04,North,6,0.0,0.0,77,0.00,,,0.00,0.00,VWS V14.01,2013-05-03 04:26:00,
2013-05-03 00:27:00,51.6,44.6,30.04,North,4,0.0,0.0,77,0.00,,,0.00,0.00,VWS V14.01,2013-05-03 04:27:00,
2013-05-03 00:28:00,51.6,44.6,30.04,NE,49,0.0,0.0,77,0.00,,,0.00,0.00,VWS V14.01,2013-05-03 04:28:00,
2013-05-03 00:29:00,51.7,44.7,30.04,NNE,31,0.0,0.0,77,0.00,,,0.00,0.00,VWS V14.01,2013-05-03 04:29:00,
2013-05-03 00:30:00,51.6,44.6,30.04,North,0,0.0,0.0,77,0.00,,,0.00,0.00,VWS V14.01,2013-05-03 04:30:00,
2013-05-03 00:31:00,51.6,44.6,30.04,NE,34,0.0,0.0,77,0.00,,,0.00,0.00,VWS V14.01,2013-05-03 04:31:00,
2013-05-03 00:32:00,51.6,44.6,30.04,NNE,23,0.0,0.0,77,0.00,,,0.00,0.00,VWS V14.01,2013-05-03 04:32:00,
2013-05-03 00:33:00,51.4,44.4,30.04,NNE,13,0.0,0.0,77,0.00,,,0.00,0.00,VWS V14.01,2013-05-03 04:33:00,
2013-05-03 00:34:00,51.4,44.4,30.04,NNE,21,0.0,0.0,77,0.00,,,0.00,0.00,VWS V14.01,2013-05-03 04:34:00,
2013-05-03 00:35:00,51.6,44.6,30.04,North,0,0.0,0.0,77,0.00,,,0.00,0.00,VWS V14.01,2013-05-03 04:35:00,
2013-05-03 00:36:00,51.4,44.4,30.04,ENE,58,0.0,0.0,77,0.00,,,0.00,0.00,VWS V14.01,2013-05-03 04:36:00,
2013-05-03 00:37:00,51.4,44.4,30.04,NE,37,0.0,0.0,77,0.00,,,0.00,0.00,VWS V14.01,2013-05-03 04:37:00,
2013-05-03 00:38:00,51.4,44.4,30.04,NNE,23,0.0,0.0,77,0.00,,,0.00,0.00,VWS V14.01,2013-05-03 04:38:00,
2013-05-03 00:39:00,51.4,44.4,30.04,NNE,21,0.0,0.0,77,0.00,,,0.00,0.00,VWS V14.01,2013-05-03 04:39:00,
2013-05-03 00:40:00,51.4,44.4,30.04,NE,35,0.0,0.0,77,0.00,,,0.00,0.00,VWS V14.01,2013-05-03 04:40:00,
2013-05-03 00:41:00,51.3,44.3,30.04,NNE,17,0.0,0.0,77,0.00,,,0.00,0.00,VWS V14.01,2013-05-03 04:41:00,
2013-05-03 00:42:00,51.3,44.7,30.04,NE,44,0.0,0.0,78,0.00,,,0.00,0.00,VWS V14.01,2013-05-03 04:42:00,
2013-05-03 00:43:00,51.3,44.7,30.04,North,11,0.0,0.0,78,0.00,,,0.00,0.00,VWS V14.01,2013-05-03 04:43:00,
2013-05-03 00:44:00,51.3,44.7,30.04,NE,41,0.0,0.0,78,0.00,,,0.00,0.00,VWS V14.01,2013-05-03 04:44:00,
2013-05-03 00:45:00,51.3,44.3,30.04,NNE,21,0.0,0.0,77,0.00,,,0.00,0.00,VWS V14.01,2013-05-03 04:45:00,
2013-05-03 00:46:00,51.3,44.7,30.03,NNE,30,0.0,0.0,78,0.00,,,0.00,0.00,VWS V14.01,2013-05-03 04:46:00,
2013-05-03 00:47:00,51.1,44.2,30.03,North,1,0.0,0.0,77,0.00,,,0.00,0.00,VWS V14.01,2013-05-03 04:47:00,
2013-05-03 00:48:00,51.1,44.2,30.03,North,1,0.0,0.0,77,0.00,,,0.00,0.00,VWS V14.01,2013-05-03 04:48:00,
2013-05-03 00:49:00,51.1,44.2,30.03,North,0,0.0,0.0,77,0.00,,,0.00,0.00,VWS V14.01,2013-05-03 04:49:00,
2013-05-03 00:50:00,51.1,44.2,30.03,North,6,0.0,0.0,77,0.00,,,0.00,0.00,VWS V14.01,2013-05-03 04:50:00,
2013-05-03 00:51:00,51.3,44.7,30.03,NNE,30,0.0,0.0,78,0.00,,,0.00,0.00,VWS V14.01,2013-05-03 04:51:00,
2013-05-03 00:52:00,51.1,44.2,30.03,NNE,24,0.0,0.0,77,0.00,,,0.00,0.00,VWS V14.01,2013-05-03 04:52:00,
2013-05-03 00:53:00,51.1,44.2,30.03,North,3,0.0,0.0,77,0.00,,,0.00,0.00,VWS V14.01,2013-05-03 04:53:00,
2013-05-03 00:54:00,51.1,44.2,30.03,NE,48,0.0,0.0,77,0.00,,,0.00,0.00,VWS V14.01,2013-05-03 04:54:00,
2013-05-03 00:55:00,51.1,44.2,30.03,NNE,27,0.0,0.0,77,0.00,,,0.00,0.00,VWS V14.01,2013-05-03 04:55:00,
2013-05-03 00:56:00,51.1,44.2,30.03,NNE,18,0.0,0.0,77,0.00,,,0.00,0.00,VWS V14.01,2013-05-03 04:56:00,
2013-05-03 00:57:00,51.0,44.0,30.03,NNE,27,0.0,0.0,77,0.00,,,0.00,0.00,VWS V14.01,2013-05-03 04:57:00,
2013-05-03 00:58:00,51.0,44.0,30.03,NNE,27,0.0,0.0,77,0.00,,,0.00,0.00,VWS V14.01,2013-05-03 04:58:00,
2013-05-03 00:59:00,51.0,44.0,30.03,NNE,27,0.0,0.0,77,0.00,,,0.00,0.00,VWS V14.01,2013-05-03 04:59:00,
2013-05-03 01:00:00,51.0,44.0,30.03,NNE,27,0.0,0.0,77,0.00,,,0.00,0.00,VWS V14.01,2013-05-03 05:00:00,
2013-05-03 01:01:00,51.1,44.2,30.03,NNE,27,0.0,0.0,77,0.00,,,0.00,0.00,VWS V14.01,2013-05-03 05:01:00,
2013-05-03 01:02:00,51.0,44.0,30.03,NNE,27,0.0,0.0,77,0.00,,,0.00,0.00,VWS V14.01,2013-05-03 05:02:00,
2013-05-03 01:03:00,51.0,44.0,30.03,NNE,27,0.0,0.0,77,0.00,,,0.00,0.00,VWS V14.01,2013-05-03 05:03:00,
2013-05-03 01:04:00,51.0,44.0,30.03,NNE,27,0.0,0.0,77,0.00,,,0.00,0.00,VWS V14.01,2013-05-03 05:04:00,
2013-05-03 01:05:00,50.8,43.9,30.03,NNW,342,0.0,0.0,77,0.00,,,0.00,0.00,VWS V14.01,2013-05-03 05:05:00,
2013-05-03 01:06:00,51.0,44.0,30.03,NNE,27,0.0,0.0,77,0.00,,,0.00,0.00,VWS V14.01,2013-05-03 05:06:00,
2013-05-03 01:07:00,50.8,43.9,30.03,North,0,0.0,0.0,77,0.00,,,0.00,0.00,VWS V14.01,2013-05-03 05:07:00,
2013-05-03 01:08:00,50.8,43.9,30.03,North,0,0.0,0.0,77,0.00,,,0.00,0.00,VWS V14.01,2013-05-03 05:08:00,
2013-05-03 01:09:00,50.8,43.9,30.03,North,0,0.0,0.0,77,0.00,,,0.00,0.00,VWS V14.01,2013-05-03 05:09:00,
2013-05-03 01:10:00,50.8,43.9,30.03,North,0,0.0,0.0,77,0.00,,,0.00,0.00,VWS V14.01,2013-05-03 05:10:00,
2013-05-03 01:11:00,50.8,43.9,30.03,NNW,344,0.0,0.0,77,0.00,,,0.00,0.00,VWS V14.01,2013-05-03 05:11:00,
2013-05-03 01:12:00,50.7,43.8,30.03,North,0,0.0,0.0,77,0.00,,,0.00,0.00,VWS V14.01,2013-05-03 05:12:00,
2013-05-03 01:13:00,50.7,43.8,30.03,North,0,0.0,0.0,77,0.00,,,0.00,0.00,VWS V14.01,2013-05-03 05:13:00,
2013-05-03 01:14:00,50.7,43.8,30.03,North,0,0.0,0.0,77,0.00,,,0.00,0.00,VWS V14.01,2013-05-03 05:14:00,
2013-05-03 01:15:00,50.7,43.8,30.02,North,0,0.0,0.0,77,0.00,,,0.00,0.00,VWS V14.01,2013-05-03 05:15:00,
2013-05-03 01:16:00,50.7,43.8,30.02,North,0,0.0,0.0,77,0.00,,,0.00,0.00,VWS V14.01,2013-05-03 05:16:00,
2013-05-03 01:17:00,50.7,43.8,30.03,North,0,0.0,0.0,77,0.00,,,0.00,0.00,VWS V14.01,2013-05-03 05:17:00,
2013-05-03 01:18:00,50.5,43.6,30.02,North,0,0.0,0.0,77,0.00,,,0.00,0.00,VWS V14.01,2013-05-03 05:18:00,
2013-05-03 01:19:00,50.5,43.6,30.02,North,0,0.0,0.0,77,0.00,,,0.00,0.00,VWS V14.01,2013-05-03 05:19:00,
2013-05-03 01:20:00,50.5,43.6,30.02,North,0,0.0,0.0,77,0.00,,,0.00,0.00,VWS V14.01,2013-05-03 05:20:00,
2013-05-03 01:21:00,50.4,43.5,30.02,North,0,0.0,0.0,77,0.00,,,0.00,0.00,VWS V14.01,2013-05-03 05:21:00,
2013-05-03 01:22:00,50.5,43.6,30.02,North,0,0.0,0.0,77,0.00,,,0.00,0.00,VWS V14.01,2013-05-03 05:22:00,
2013-05-03 01:23:00,50.4,43.8,30.02,North,0,0.0,0.0,78,0.00,,,0.00,0.00,VWS V14.01,2013-05-03 05:23:00,
2013-05-03 01:24:00,50.2,43.6,30.02,North,0,0.0,0.0,78,0.00,,,0.00,0.00,VWS V14.01,2013-05-03 05:24:00,
2013-05-03 01:25:00,50.2,43.6,30.02,North,0,0.0,0.0,78,0.00,,,0.00,0.00,VWS V14.01,2013-05-03 05:25:00,
2013-05-03 01:26:00,50.2,43.6,30.02,North,0,0.0,0.0,78,0.00,,,0.00,0.00,VWS V14.01,2013-05-03 05:26:00,
2013-05-03 01:27:00,50.4,43.8,30.02,North,0,0.0,0.0,78,0.00,,,0.00,0.00,VWS V14.01,2013-05-03 05:27:00,
2013-05-03 01:28:00,50.2,43.6,30.02,North,0,0.0,0.0,78,0.00,,,0.00,0.00,VWS V14.01,2013-05-03 05:28:00,
2013-05-03 01:29:00,50.2,43.6,30.02,North,0,0.0,0.0,78,0.00,,,0.00,0.00,VWS V14.01,2013-05-03 05:29:00,
2013-05-03 01:30:00,50.1,43.5,30.02,North,0,0.0,0.0,78,0.00,,,0.00,0.00,VWS V14.01,2013-05-03 05:30:00,
2013-05-03 01:31:00,50.1,43.5,30.02,North,0,0.0,0.0,78,0.00,,,0.00,0.00,VWS V14.01,2013-05-03 05:31:00,
2013-05-03 01:32:00,50.2,43.6,30.02,North,0,0.0,0.0,78,0.00,,,0.00,0.00,VWS V14.01,2013-05-03 05:32:00,
2013-05-03 01:33:00,49.9,43.3,30.02,North,0,0.0,0.0,78,0.00,,,0.00,0.00,VWS V14.01,2013-05-03 05:33:00,
2013-05-03 01:34:00,49.8,43.6,30.02,North,0,0.0,0.0,79,0.00,,,0.00,0.00,VWS V14.01,2013-05-03 05:34:00,
2013-05-03 01:35:00,49.8,43.6,30.02,North,0,0.0,0.0,79,0.00,,,0.00,0.00,VWS V14.01,2013-05-03 05:35:00,
2013-05-03 01:36:00,49.6,43.4,30.02,North,0,0.0,0.0,79,0.00,,,0.00,0.00,VWS V14.01,2013-05-03 05:36:00,
2013-05-03 01:37:00,50.1,43.5,30.02,North,0,0.0,0.0,78,0.00,,,0.00,0.00,VWS V14.01,2013-05-03 05:37:00,
2013-05-03 01:38:00,49.6,43.4,30.02,North,0,0.0,0.0,79,0.00,,,0.00,0.00,VWS V14.01,2013-05-03 05:38:00,
2013-05-03 01:39:00,49.6,43.7,30.02,North,0,0.0,0.0,80,0.00,,,0.00,0.00,VWS V14.01,2013-05-03 05:39:00,
2013-05-03 01:40:00,49.6,43.7,30.02,North,0,0.0,0.0,80,0.00,,,0.00,0.00,VWS V14.01,2013-05-03 05:40:00,
2013-05-03 01:41:00,49.5,43.6,30.02,North,0,0.0,0.0,80,0.00,,,0.00,0.00,VWS V14.01,2013-05-03 05:41:00,
2013-05-03 01:42:00,49.5,43.6,30.02,North,0,0.0,0.0,80,0.00,,,0.00,0.00,VWS V14.01,2013-05-03 05:42:00,
2013-05-03 01:43:00,49.6,43.4,30.02,North,0,0.0,0.0,79,0.00,,,0.00,0.00,VWS V14.01,2013-05-03 05:43:00,
2013-05-03 01:44:00,49.4,43.5,30.02,North,0,0.0,0.0,80,0.00,,,0.00,0.00,VWS V14.01,2013-05-03 05:44:00,
2013-05-03 01:45:00,49.4,43.5,30.01,North,0,0.0,0.0,80,0.00,,,0.00,0.00,VWS V14.01,2013-05-03 05:45:00,
2013-05-03 01:46:00,49.2,43.6,30.01,North,0,0.0,0.0,81,0.00,,,0.00,0.00,VWS V14.01,2013-05-03 05:46:00,
2013-05-03 01:47:00,49.2,43.6,30.01,North,0,0.0,0.0,81,0.00,,,0.00,0.00,VWS V14.01,2013-05-03 05:47:00,
2013-05-03 01:48:00,49.2,43.6,30.01,North,0,0.0,0.0,81,0.00,,,0.00,0.00,VWS V14.01,2013-05-03 05:48:00,
2013-05-03 01:49:00,49.4,43.5,30.02,North,0,0.0,0.0,80,0.00,,,0.00,0.00,VWS V14.01,2013-05-03 05:49:00,
2013-05-03 01:50:00,49.1,43.5,30.01,NNE,14,0.0,0.0,81,0.00,,,0.00,0.00,VWS V14.01,2013-05-03 05:50:00,
2013-05-03 01:51:00,49.1,43.5,30.01,NNE,13,0.0,0.0,81,0.00,,,0.00,0.00,VWS V14.01,2013-05-03 05:51:00,
2013-05-03 01:52:00,49.1,43.5,30.01,NNE,13,0.0,0.0,81,0.00,,,0.00,0.00,VWS V14.01,2013-05-03 05:52:00,
2013-05-03 01:53:00,48.9,43.3,30.01,NNE,13,0.0,0.0,81,0.00,,,0.00,0.00,VWS V14.01,2013-05-03 05:53:00,
2013-05-03 01:54:00,48.9,43.3,30.01,North,11,0.0,0.0,81,0.00,,,0.00,0.00,VWS V14.01,2013-05-03 05:54:00,
2013-05-03 01:55:00,49.1,43.5,30.01,NNE,14,0.0,0.0,81,0.00,,,0.00,0.00,VWS V14.01,2013-05-03 05:55:00,
2013-05-03 01:56:00,48.9,43.3,30.01,North,6,0.0,0.0,81,0.00,,,0.00,0.00,VWS V14.01,2013-05-03 05:56:00,
2013-05-03 01:57:00,48.9,43.3,30.01,North,3,0.0,0.0,81,0.00,,,0.00,0.00,VWS V14.01,2013-05-03 05:57:00,
2013-05-03 01:58:00,48.8,43.6,30.01,North,11,0.0,0.0,82,0.00,,,0.00,0.00,VWS V14.01,2013-05-03 05:58:00,
2013-05-03 01:59:00,48.8,43.6,30.01,NNE,23,0.0,0.0,82,0.00,,,0.00,0.00,VWS V14.01,2013-05-03 05:59:00,
2013-05-03 02:00:00,48.9,43.3,30.01,North,6,0.0,0.0,81,0.00,,,0.00,0.00,VWS V14.01,2013-05-03 06:00:00,
2013-05-03 02:01:00,48.8,43.6,30.01,North,7,0.0,0.0,82,0.00,,,0.00,0.00,VWS V14.01,2013-05-03 06:01:00,
2013-05-03 02:02:00,48.8,43.6,30.01,NNE,13,0.0,0.0,82,0.00,,,0.00,0.00,VWS V14.01,2013-05-03 06:02:00,
2013-05-03 02:03:00,48.8,43.6,30.01,NNE,14,0.0,0.0,82,0.00,,,0.00,0.00,VWS V14.01,2013-05-03 06:03:00,
2013-05-03 02:04:00,48.8,43.6,30.01,North,10,0.0,0.0,82,0.00,,,0.00,0.00,VWS V14.01,2013-05-03 06:04:00,
2013-05-03 02:05:00,48.8,43.6,30.01,North,10,0.0,0.0,82,0.00,,,0.00,0.00,VWS V14.01,2013-05-03 06:05:00,
2013-05-03 02:06:00,48.8,43.9,30.01,North,0,0.0,0.0,83,0.00,,,0.00,0.00,VWS V14.01,2013-05-03 06:06:00,
2013-05-03 02:07:00,48.9,44.0,30.01,NNE,14,0.0,0.0,83,0.00,,,0.00,0.00,VWS V14.01,2013-05-03 06:07:00,
2013-05-03 02:08:00,48.9,44.0,30.01,North,8,0.0,0.0,83,0.00,,,0.00,0.00,VWS V14.01,2013-05-03 06:08:00,
2013-05-03 02:09:00,48.9,44.0,30.01,North,8,0.0,0.0,83,0.00,,,0.00,0.00,VWS V14.01,2013-05-03 06:09:00,
2013-05-03 02:10:00,48.8,43.6,30.01,North,0,0.0,0.0,82,0.00,,,0.00,0.00,VWS V14.01,2013-05-03 06:10:00,
2013-05-03 02:11:00,48.9,44.0,30.01,North,10,0.0,0.0,83,0.00,,,0.00,0.00,VWS V14.01,2013-05-03 06:11:00,
2013-05-03 02:12:00,48.9,44.0,30.01,North,4,0.0,0.0,83,0.00,,,0.00,0.00,VWS V14.01,2013-05-03 06:12:00,
2013-05-03 02:13:00,48.9,44.0,30.01,North,4,0.0,0.0,83,0.00,,,0.00,0.00,VWS V14.01,2013-05-03 06:13:00,
2013-05-03 02:14:00,48.9,44.0,30.01,North,0,0.0,0.0,83,0.00,,,0.00,0.00,VWS V14.01,2013-05-03 06:14:00,
2013-05-03 02:15:00,48.9,44.0,30.01,NNE,24,0.0,0.0,83,0.00,,,0.00,0.00,VWS V14.01,2013-05-03 06:15:00,
2013-05-03 02:16:00,48.9,44.0,30.00,North,0,0.0,0.0,83,0.00,,,0.00,0.00,VWS V14.01,2013-05-03 06:16:00,
2013-05-03 02:17:00,48.9,44.0,30.00,North,0,0.0,0.0,83,0.00,,,0.00,0.00,VWS V14.01,2013-05-03 06:17:00,
2013-05-03 02:18:00,48.9,44.0,30.00,North,7,0.0,0.0,83,0.00,,,0.00,0.00,VWS V14.01,2013-05-03 06:18:00,
2013-05-03 02:19:00,48.9,44.0,30.00,North,0,0.0,0.0,83,0.00,,,0.00,0.00,VWS V14.01,2013-05-03 06:19:00,
2013-05-03 02:20:00,48.9,44.0,30.00,North,0,0.0,0.0,83,0.00,,,0.00,0.00,VWS V14.01,2013-05-03 06:20:00,
2013-05-03 02:21:00,48.9,44.0,30.00,North,0,0.0,0.0,83,0.00,,,0.00,0.00,VWS V14.01,2013-05-03 06:21:00,
2013-05-03 02:22:00,48.9,44.0,30.00,North,0,0.0,0.0,83,0.00,,,0.00,0.00,VWS V14.01,2013-05-03 06:22:00,
2013-05-03 02:23:00,48.9,44.0,30.00,North,0,0.0,0.0,83,0.00,,,0.00,0.00,VWS V14.01,2013-05-03 06:23:00,
2013-05-03 02:24:00,48.9,44.0,30.00,North,0,0.0,0.0,83,0.00,,,0.00,0.00,VWS V14.01,2013-05-03 06:24:00,
2013-05-03 02:25:00,48.9,44.0,30.00,North,0,0.0,0.0,83,0.00,,,0.00,0.00,VWS V14.01,2013-05-03 06:25:00,
2013-05-03 02:26:00,48.9,44.0,30.00,North,0,0.0,0.0,83,0.00,,,0.00,0.00,VWS V14.01,2013-05-03 06:26:00,
2013-05-03 02:27:00,48.8,44.2,30.00,North,4,0.0,0.0,84,0.00,,,0.00,0.00,VWS V14.01,2013-05-03 06:27:00,
2013-05-03 02:28:00,48.8,44.2,30.00,North,0,0.0,0.0,84,0.00,,,0.00,0.00,VWS V14.01,2013-05-03 06:28:00,
2013-05-03 02:29:00,48.8,44.2,30.00,North,4,0.0,0.0,84,0.00,,,0.00,0.00,VWS V14.01,2013-05-03 06:29:00,
2013-05-03 02:30:00,48.8,44.2,29.99,North,4,0.0,0.0,84,0.00,,,0.00,0.00,VWS V14.01,2013-05-03 06:30:00,
2013-05-03 02:31:00,48.8,43.9,30.00,North,0,0.0,0.0,83,0.00,,,0.00,0.00,VWS V14.01,2013-05-03 06:31:00,
2013-05-03 02:32:00,48.8,44.2,29.99,North,4,0.0,0.0,84,0.00,,,0.00,0.00,VWS V14.01,2013-05-03 06:32:00,
2013-05-03 02:33:00,48.6,44.0,29.99,North,3,0.0,0.0,84,0.00,,,0.00,0.00,VWS V14.01,2013-05-03 06:33:00,
2013-05-03 02:34:00,48.6,44.0,29.99,NNE,21,0.0,0.0,84,0.00,,,0.00,0.00,VWS V14.01,2013-05-03 06:34:00,
2013-05-03 02:35:00,48.6,44.0,29.99,North,0,0.0,0.0,84,0.00,,,0.00,0.00,VWS V14.01,2013-05-03 06:35:00,
2013-05-03 02:36:00,48.8,44.2,29.99,North,4,0.0,0.0,84,0.00,,,0.00,0.00,VWS V14.01,2013-05-03 06:36:00,
2013-05-03 02:37:00,48.6,44.0,29.99,North,0,0.0,0.0,84,0.00,,,0.00,0.00,VWS V14.01,2013-05-03 06:37:00,
2013-05-03 02:38:00,48.6,44.0,29.99,NNW,344,0.0,0.0,84,0.00,,,0.00,0.00,VWS V14.01,2013-05-03 06:38:00,
2013-05-03 02:39:00,48.5,43.9,29.99,North,354,0.0,0.0,84,0.00,,,0.00,0.00,VWS V14.01,2013-05-03 06:39:00,
2013-05-03 02:40:00,48.5,43.9,29.99,North,0,0.0,0.0,84,0.00,,,0.00,0.00,VWS V14.01,2013-05-03 06:40:00,
2013-05-03 02:41:00,48.5,43.9,29.99,North,353,0.0,0.0,84,0.00,,,0.00,0.00,VWS V14.01,2013-05-03 06:41:00,
2013-05-03 02:42:00,48.6,44.0,29.99,North,0,0.0,0.0,84,0.00,,,0.00,0.00,VWS V14.01,2013-05-03 06:42:00,
2013-05-03 02:43:00,48.5,43.9,29.99,NNE,13,0.0,0.0,84,0.00,,,0.00,0.00,VWS V14.01,2013-05-03 06:43:00,
2013-05-03 02:44:00,48.5,43.9,29.99,NNE,13,0.0,0.0,84,0.00,,,0.00,0.00,VWS V14.01,2013-05-03 06:44:00,
2013-05-03 02:45:00,48.3,43.7,29.99,NNE,13,0.0,0.0,84,0.00,,,0.00,0.00,VWS V14.01,2013-05-03 06:45:00,
2013-05-03 02:46:00,48.3,43.7,29.99,NNE,13,0.0,0.0,84,0.00,,,0.00,0.00,VWS V14.01,2013-05-03 06:46:00,
2013-05-03 02:47:00,48.5,43.9,29.99,NNE,14,0.0,0.0,84,0.00,,,0.00,0.00,VWS V14.01,2013-05-03 06:47:00,
2013-05-03 02:48:00,48.3,44.0,29.99,NNE,13,0.0,0.0,85,0.00,,,0.00,0.00,VWS V14.01,2013-05-03 06:48:00,
2013-05-03 02:49:00,48.3,44.0,29.99,North,6,0.0,0.0,85,0.00,,,0.00,0.00,VWS V14.01,2013-05-03 06:49:00,
2013-05-03 02:50:00,48.3,44.0,29.99,North,3,0.0,0.0,85,0.00,,,0.00,0.00,VWS V14.01,2013-05-03 06:50:00,
2013-05-03 02:51:00,48.3,44.0,29.99,North,3,0.0,0.0,85,0.00,,,0.00,0.00,VWS V14.01,2013-05-03 06:51:00,
2013-05-03 02:52:00,48.3,44.0,29.99,NNE,13,0.0,0.0,85,0.00,,,0.00,0.00,VWS V14.01,2013-05-03 06:52:00,
2013-05-03 02:53:00,48.3,44.0,29.99,NNE,13,0.0,0.0,85,0.00,,,0.00,0.00,VWS V14.01,2013-05-03 06:53:00,
2013-05-03 02:54:00,48.3,44.0,29.99,North,1,0.0,0.0,85,0.00,,,0.00,0.00,VWS V14.01,2013-05-03 06:54:00,
2013-05-03 02:55:00,48.3,44.0,29.99,North,1,0.0,0.0,85,0.00,,,0.00,0.00,VWS V14.01,2013-05-03 06:55:00,
2013-05-03 02:56:00,48.3,44.0,29.99,North,1,0.0,0.0,85,0.00,,,0.00,0.00,VWS V14.01,2013-05-03 06:56:00,
2013-05-03 02:57:00,48.2,43.9,29.99,North,1,0.0,0.0,85,0.00,,,0.00,0.00,VWS V14.01,2013-05-03 06:57:00,
2013-05-03 02:58:00,48.3,44.0,29.99,North,3,0.0,0.0,85,0.00,,,0.00,0.00,VWS V14.01,2013-05-03 06:58:00,
2013-05-03 02:59:00,48.2,43.9,29.99,NNE,14,0.0,0.0,85,0.00,,,0.00,0.00,VWS V14.01,2013-05-03 06:59:00,
2013-05-03 03:00:00,48.2,43.9,29.99,NNE,20,0.0,0.0,85,0.00,,,0.00,0.00,VWS V14.01,2013-05-03 07:00:00,
2013-05-03 03:01:00,48.2,43.9,29.99,NNE,20,0.0,0.0,85,0.00,,,0.00,0.00,VWS V14.01,2013-05-03 07:01:00,
2013-05-03 03:02:00,48.2,43.9,29.99,NNE,23,0.0,0.0,85,0.00,,,0.00,0.00,VWS V14.01,2013-05-03 07:02:00,
2013-05-03 03:03:00,48.2,43.9,29.99,ENE,61,0.0,0.0,85,0.00,,,0.00,0.00,VWS V14.01,2013-05-03 07:03:00,
2013-05-03 03:04:00,48.2,43.9,29.99,NNE,14,0.0,0.0,85,0.00,,,0.00,0.00,VWS V14.01,2013-05-03 07:04:00,
2013-05-03 03:05:00,48.2,43.9,29.99,NE,56,0.0,0.0,85,0.00,,,0.00,0.00,VWS V14.01,2013-05-03 07:05:00,
2013-05-03 03:06:00,48.2,43.9,29.99,NE,55,0.0,0.0,85,0.00,,,0.00,0.00,VWS V14.01,2013-05-03 07:06:00,
2013-05-03 03:07:00,48.2,43.9,29.99,NNE,23,0.0,0.0,85,0.00,,,0.00,0.00,VWS V14.01,2013-05-03 07:07:00,
2013-05-03 03:08:00,48.2,43.9,29.99,NNE,23,0.0,0.0,85,0.00,,,0.00,0.00,VWS V14.01,2013-05-03 07:08:00,
2013-05-03 03:09:00,48.2,43.9,29.99,NNE,23,0.0,0.0,85,0.00,,,0.00,0.00,VWS V14.01,2013-05-03 07:09:00,
2013-05-03 03:10:00,48.2,43.9,29.99,NE,56,0.0,0.0,85,0.00,,,0.00,0.00,VWS V14.01,2013-05-03 07:10:00,
2013-05-03 03:11:00,48.2,43.9,29.99,NE,44,0.0,0.0,85,0.00,,,0.00,0.00,VWS V14.01,2013-05-03 07:11:00,
2013-05-03 03:12:00,48.2,43.9,29.99,NE,44,0.0,0.0,85,0.00,,,0.00,0.00,VWS V14.01,2013-05-03 07:12:00,
2013-05-03 03:13:00,48.2,43.9,29.99,NE,44,0.0,0.0,85,0.00,,,0.00,0.00,VWS V14.01,2013-05-03 07:13:00,
2013-05-03 03:14:00,48.2,43.9,29.99,NE,44,0.0,0.0,85,0.00,,,0.00,0.00,VWS V14.01,2013-05-03 07:14:00,
2013-05-03 03:15:00,48.2,43.9,29.99,NE,44,0.0,0.0,85,0.00,,,0.00,0.00,VWS V14.01,2013-05-03 07:15:00,
2013-05-03 03:16:00,48.2,43.9,29.99,NE,40,0.0,0.0,85,0.00,,,0.00,0.00,VWS V14.01,2013-05-03 07:16:00,
2013-05-03 03:17:00,48.2,43.9,29.99,NE,38,0.0,0.0,85,0.00,,,0.00,0.00,VWS V14.01,2013-05-03 07:17:00,
2013-05-03 03:18:00,48.2,43.9,29.99,NE,35,0.0,0.0,85,0.00,,,0.00,0.00,VWS V14.01,2013-05-03 07:18:00,
2013-05-03 03:19:00,48.2,43.9,29.99,NE,38,0.0,0.0,85,0.00,,,0.00,0.00,VWS V14.01,2013-05-03 07:19:00,
2013-05-03 03:20:00,48.2,43.9,29.99,NE,38,0.0,0.0,85,0.00,,,0.00,0.00,VWS V14.01,2013-05-03 07:20:00,
2013-05-03 03:21:00,48.2,43.9,29.99,NE,40,0.0,0.0,85,0.00,,,0.00,0.00,VWS V14.01,2013-05-03 07:21:00,
2013-05-03 03:22:00,48.2,43.9,29.99,NE,38,0.0,0.0,85,0.00,,,0.00,0.00,VWS V14.01,2013-05-03 07:22:00,
2013-05-03 03:23:00,48.2,43.9,29.99,NE,38,0.0,0.0,85,0.00,,,0.00,0.00,VWS V14.01,2013-05-03 07:23:00,
2013-05-03 03:24:00,48.2,43.9,29.99,NE,38,0.0,0.0,85,0.00,,,0.00,0.00,VWS V14.01,2013-05-03 07:24:00,
2013-05-03 03:25:00,48.2,43.9,29.99,NE,38,0.0,0.0,85,0.00,,,0.00,0.00,VWS V14.01,2013-05-03 07:25:00,
2013-05-03 03:26:00,48.2,43.9,29.99,NE,38,0.0,0.0,85,0.00,,,0.00,0.00,VWS V14.01,2013-05-03 07:26:00,
2013-05-03 03:27:00,48.2,43.9,29.99,NE,38,0.0,0.0,85,0.00,,,0.00,0.00,VWS V14.01,2013-05-03 07:27:00,
2013-05-03 03:28:00,48.2,43.9,29.99,NE,38,0.0,0.0,85,0.00,,,0.00,0.00,VWS V14.01,2013-05-03 07:28:00,
2013-05-03 03:29:00,48.0,43.7,29.99,NE,38,0.0,0.0,85,0.00,,,0.00,0.00,VWS V14.01,2013-05-03 07:29:00,
2013-05-03 03:30:00,48.0,43.7,29.99,NE,38,0.0,0.0,85,0.00,,,0.00,0.00,VWS V14.01,2013-05-03 07:30:00,
2013-05-03 03:31:00,48.0,43.7,29.99,NE,38,0.0,0.0,85,0.00,,,0.00,0.00,VWS V14.01,2013-05-03 07:31:00,
2013-05-03 03:32:00,48.2,43.9,29.99,NE,38,0.0,0.0,85,0.00,,,0.00,0.00,VWS V14.01,2013-05-03 07:32:00,
2013-05-03 03:33:00,48.0,43.7,29.99,NE,38,0.0,0.0,85,0.00,,,0.00,0.00,VWS V14.01,2013-05-03 07:33:00,
2013-05-03 03:34:00,48.0,43.7,29.99,NNE,14,0.0,0.0,85,0.00,,,0.00,0.00,VWS V14.01,2013-05-03 07:34:00,
2013-05-03 03:35:00,48.0,43.7,29.99,NNE,14,0.0,0.0,85,0.00,,,0.00,0.00,VWS V14.01,2013-05-03 07:35:00,
2013-05-03 03:36:00,48.0,43.7,29.99,NNE,16,0.0,0.0,85,0.00,,,0.00,0.00,VWS V14.01,2013-05-03 07:36:00,
2013-05-03 03:37:00,48.0,43.7,29.99,NE,38,0.0,0.0,85,0.00,,,0.00,0.00,VWS V14.01,2013-05-03 07:37:00,
2013-05-03 03:38:00,47.9,43.9,29.99,NNE,16,0.0,0.0,86,0.00,,,0.00,0.00,VWS V14.01,2013-05-03 07:38:00,
2013-05-03 03:39:00,47.9,43.9,29.99,NNE,14,0.0,0.0,86,0.00,,,0.00,0.00,VWS V14.01,2013-05-03 07:39:00,
2013-05-03 03:40:00,47.9,43.9,29.99,NNE,16,0.0,0.0,86,0.00,,,0.00,0.00,VWS V14.01,2013-05-03 07:40:00,
2013-05-03 03:41:00,47.9,43.9,29.99,NNE,16,0.0,0.0,86,0.00,,,0.00,0.00,VWS V14.01,2013-05-03 07:41:00,
2013-05-03 03:42:00,47.9,43.9,29.99,NNE,16,0.0,0.0,86,0.00,,,0.00,0.00,VWS V14.01,2013-05-03 07:42:00,
2013-05-03 03:43:00,47.9,43.9,29.99,NNE,16,0.0,0.0,86,0.00,,,0.00,0.00,VWS V14.01,2013-05-03 07:43:00,
2013-05-03 03:44:00,47.9,43.9,29.99,NNE,13,0.0,0.0,86,0.00,,,0.00,0.00,VWS V14.01,2013-05-03 07:44:00,
2013-05-03 03:45:00,47.9,43.9,29.99,NNE,13,0.0,0.0,86,0.00,,,0.00,0.00,VWS V14.01,2013-05-03 07:45:00,
2013-05-03 03:46:00,47.9,43.9,29.99,NNE,24,0.0,0.0,86,0.00,,,0.00,0.00,VWS V14.01,2013-05-03 07:46:00,
2013-05-03 03:47:00,47.9,43.9,29.99,NNE,24,0.0,0.0,86,0.00,,,0.00,0.00,VWS V14.01,2013-05-03 07:47:00,
2013-05-03 03:48:00,47.9,43.9,29.99,NE,35,0.0,0.0,86,0.00,,,0.00,0.00,VWS V14.01,2013-05-03 07:48:00,
2013-05-03 03:49:00,47.9,43.9,29.99,NNE,25,0.0,0.0,86,0.00,,,0.00,0.00,VWS V14.01,2013-05-03 07:49:00,
2013-05-03 03:50:00,47.9,43.9,29.99,NNE,24,0.0,0.0,86,0.00,,,0.00,0.00,VWS V14.01,2013-05-03 07:50:00,
2013-05-03 03:51:00,47.9,43.9,29.99,NNE,25,0.0,0.0,86,0.00,,,0.00,0.00,VWS V14.01,2013-05-03 07:51:00,
2013-05-03 03:52:00,47.9,43.9,29.99,NNE,27,0.0,0.0,86,0.00,,,0.00,0.00,VWS V14.01,2013-05-03 07:52:00,
2013-05-03 03:53:00,47.9,43.9,29.99,NNE,27,0.0,0.0,86,0.00,,,0.00,0.00,VWS V14.01,2013-05-03 07:53:00,
2013-05-03 03:54:00,47.9,43.9,29.99,NNE,25,0.0,0.0,86,0.00,,,0.00,0.00,VWS V14.01,2013-05-03 07:54:00,
2013-05-03 03:55:00,47.9,43.9,29.99,NNE,27,0.0,0.0,86,0.00,,,0.00,0.00,VWS V14.01,2013-05-03 07:55:00,
2013-05-03 03:56:00,47.9,43.9,29.99,NNE,27,0.0,0.0,86,0.00,,,0.00,0.00,VWS V14.01,2013-05-03 07:56:00,
2013-05-03 03:57:00,47.9,43.9,29.99,NNE,27,0.0,0.0,86,0.00,,,0.00,0.00,VWS V14.01,2013-05-03 07:57:00,
2013-05-03 03:58:00,47.9,43.9,29.99,NNE,27,0.0,0.0,86,0.00,,,0.00,0.00,VWS V14.01,2013-05-03 07:58:00,
2013-05-03 03:59:00,47.9,43.9,29.99,NNE,28,0.0,0.0,86,0.00,,,0.00,0.00,VWS V14.01,2013-05-03 07:59:00,
2013-05-03 04:00:00,48.0,44.0,29.99,NE,52,0.0,0.0,86,0.00,,,0.00,0.00,VWS V14.01,2013-05-03 08:00:00,
2013-05-03 04:01:00,48.0,44.0,29.99,NE,52,0.0,0.0,86,0.00,,,0.00,0.00,VWS V14.01,2013-05-03 08:01:00,
2013-05-03 04:02:00,48.0,44.0,29.99,NE,37,0.0,0.0,86,0.00,,,0.00,0.00,VWS V14.01,2013-05-03 08:02:00,
2013-05-03 04:03:00,48.0,44.0,29.99,NE,35,0.0,0.0,86,0.00,,,0.00,0.00,VWS V14.01,2013-05-03 08:03:00,
2013-05-03 04:04:00,48.0,44.0,29.99,NE,51,0.0,0.0,86,0.00,,,0.00,0.00,VWS V14.01,2013-05-03 08:04:00,
2013-05-03 04:05:00,48.0,44.0,29.99,NE,52,0.0,0.0,86,0.00,,,0.00,0.00,VWS V14.01,2013-05-03 08:05:00,
2013-05-03 04:06:00,48.0,44.0,29.99,NE,34,0.0,0.0,86,0.00,,,0.00,0.00,VWS V14.01,2013-05-03 08:06:00,
2013-05-03 04:07:00,48.0,44.0,29.99,North,11,0.0,0.0,86,0.00,,,0.00,0.00,VWS V14.01,2013-05-03 08:07:00,
2013-05-03 04:08:00,48.0,44.0,29.99,North,10,0.0,0.0,86,0.00,,,0.00,0.00,VWS V14.01,2013-05-03 08:08:00,
2013-05-03 04:09:00,48.0,44.0,29.99,North,10,0.0,0.0,86,0.00,,,0.00,0.00,VWS V14.01,2013-05-03 08:09:00,
2013-05-03 04:10:00,48.0,44.0,29.99,North,0,0.0,0.0,86,0.00,,,0.00,0.00,VWS V14.01,2013-05-03 08:10:00,
2013-05-03 04:11:00,48.0,44.0,29.99,NE,34,0.0,0.0,86,0.00,,,0.00,0.00,VWS V14.01,2013-05-03 08:11:00,
2013-05-03 04:12:00,48.2,44.2,29.99,NNE,18,0.0,0.0,86,0.00,,,0.00,0.00,VWS V14.01,2013-05-03 08:12:00,
2013-05-03 04:13:00,48.2,44.2,29.99,NNE,18,0.0,0.0,86,0.00,,,0.00,0.00,VWS V14.01,2013-05-03 08:13:00,
2013-05-03 04:14:00,48.2,44.2,29.99,NE,44,0.0,0.0,86,0.00,,,0.00,0.00,VWS V14.01,2013-05-03 08:14:00,
2013-05-03 04:15:00,48.2,44.2,29.99,ENE,58,0.0,0.0,86,0.00,,,0.00,0.00,VWS V14.01,2013-05-03 08:15:00,
2013-05-03 04:16:00,48.2,44.2,29.99,NNE,18,0.0,0.0,86,0.00,,,0.00,0.00,VWS V14.01,2013-05-03 08:16:00,
2013-05-03 04:17:00,48.2,44.2,29.99,NNE,18,0.0,0.0,86,0.00,,,0.00,0.00,VWS V14.01,2013-05-03 08:17:00,
2013-05-03 04:18:00,48.2,44.2,29.99,NNE,14,0.0,0.0,86,0.00,,,0.00,0.00,VWS V14.01,2013-05-03 08:18:00,
2013-05-03 04:19:00,48.2,44.2,29.99,NE,44,0.0,0.0,86,0.00,,,0.00,0.00,VWS V14.01,2013-05-03 08:19:00,
2013-05-03 04:20:00,48.2,44.2,29.99,NNE,32,0.0,0.0,86,0.00,,,0.00,0.00,VWS V14.01,2013-05-03 08:20:00,
2013-05-03 04:21:00,48.2,44.2,29.99,NNE,32,0.0,0.0,86,0.00,,,0.00,0.00,VWS V14.01,2013-05-03 08:21:00,
2013-05-03 04:22:00,48.2,44.2,29.99,North,0,0.0,0.0,86,0.00,,,0.00,0.00,VWS V14.01,2013-05-03 08:22:00,
2013-05-03 04:23:00,48.2,44.2,29.99,NNE,14,0.0,0.0,86,0.00,,,0.00,0.00,VWS V14.01,2013-05-03 08:23:00,
2013-05-03 04:24:00,48.2,44.2,29.99,NNE,14,0.0,0.0,86,0.00,,,0.00,0.00,VWS V14.01,2013-05-03 08:24:00,
2013-05-03 04:25:00,48.2,44.2,29.99,NE,45,0.0,0.0,86,0.00,,,0.00,0.00,VWS V14.01,2013-05-03 08:25:00,
2013-05-03 04:26:00,48.2,44.2,29.99,NNE,28,0.0,0.0,86,0.00,,,0.00,0.00,VWS V14.01,2013-05-03 08:26:00,
2013-05-03 04:27:00,48.2,44.2,29.99,North,6,0.0,0.0,86,0.00,,,0.00,0.00,VWS V14.01,2013-05-03 08:27:00,
2013-05-03 04:28:00,48.2,44.2,29.99,NNE,16,0.0,0.0,86,0.00,,,0.00,0.00,VWS V14.01,2013-05-03 08:28:00,
2013-05-03 04:29:00,48.2,44.2,29.99,North,1,0.0,0.0,86,0.00,,,0.00,0.00,VWS V14.01,2013-05-03 08:29:00,
2013-05-03 04:30:00,48.2,44.2,29.99,NNE,30,0.0,0.0,86,0.00,,,0.00,0.00,VWS V14.01,2013-05-03 08:30:00,
2013-05-03 04:31:00,48.2,44.2,29.99,NNE,17,0.0,0.0,86,0.00,,,0.00,0.00,VWS V14.01,2013-05-03 08:31:00,
2013-05-03 04:32:00,48.2,44.2,29.99,NNE,17,0.0,0.0,86,0.00,,,0.00,0.00,VWS V14.01,2013-05-03 08:32:00,
2013-05-03 04:33:00,48.2,44.2,29.99,NNE,17,0.0,0.0,86,0.00,,,0.00,0.00,VWS V14.01,2013-05-03 08:33:00,
2013-05-03 04:34:00,48.2,44.2,29.99,North,1,0.0,0.0,86,0.00,,,0.00,0.00,VWS V14.01,2013-05-03 08:34:00,
2013-05-03 04:35:00,48.2,44.2,29.99,NNE,21,0.0,0.0,86,0.00,,,0.00,0.00,VWS V14.01,2013-05-03 08:35:00,
2013-05-03 04:36:00,48.2,44.2,29.99,NNE,21,0.0,0.0,86,0.00,,,0.00,0.00,VWS V14.01,2013-05-03 08:36:00,
2013-05-03 04:37:00,48.2,44.2,29.99,NNE,24,0.0,0.0,86,0.00,,,0.00,0.00,VWS V14.01,2013-05-03 08:37:00,
2013-05-03 04:38:00,48.2,44.2,29.99,NNE,24,0.0,0.0,86,0.00,,,0.00,0.00,VWS V14.01,2013-05-03 08:38:00,
2013-05-03 04:39:00,48.2,44.2,29.99,NNE,21,0.0,0.0,86,0.00,,,0.00,0.00,VWS V14.01,2013-05-03 08:39:00,
2013-05-03 04:40:00,48.2,44.2,29.99,NNE,24,0.0,0.0,86,0.00,,,0.00,0.00,VWS V14.01,2013-05-03 08:40:00,
2013-05-03 04:41:00,48.2,44.2,29.99,NNE,24,0.0,0.0,86,0.00,,,0.00,0.00,VWS V14.01,2013-05-03 08:41:00,
2013-05-03 04:42:00,48.2,44.2,29.99,NNE,24,0.0,0.0,86,0.00,,,0.00,0.00,VWS V14.01,2013-05-03 08:42:00,
2013-05-03 04:43:00,48.2,44.2,29.99,NNE,27,0.0,0.0,86,0.00,,,0.00,0.00,VWS V14.01,2013-05-03 08:43:00,
2013-05-03 04:44:00,48.2,44.2,29.99,NNE,27,0.0,0.0,86,0.00,,,0.00,0.00,VWS V14.01,2013-05-03 08:44:00,
2013-05-03 04:45:00,48.2,44.2,29.99,NNE,24,0.0,0.0,86,0.00,,,0.00,0.00,VWS V14.01,2013-05-03 08:45:00,
2013-05-03 04:46:00,48.2,44.2,29.99,NNE,27,0.0,0.0,86,0.00,,,0.00,0.00,VWS V14.01,2013-05-03 08:46:00,
2013-05-03 04:47:00,48.2,44.2,29.99,NNE,27,0.0,0.0,86,0.00,,,0.00,0.00,VWS V14.01,2013-05-03 08:47:00,
2013-05-03 04:48:00,48.2,44.2,29.99,NNE,27,0.0,0.0,86,0.00,,,0.00,0.00,VWS V14.01,2013-05-03 08:48:00,
2013-05-03 04:49:00,48.2,44.2,29.99,NNE,30,0.0,0.0,86,0.00,,,0.00,0.00,VWS V14.01,2013-05-03 08:49:00,
2013-05-03 04:50:00,48.2,44.2,29.99,NE,38,0.0,0.0,86,0.00,,,0.00,0.00,VWS V14.01,2013-05-03 08:50:00,
2013-05-03 04:51:00,48.2,44.2,29.99,NNE,27,0.0,0.0,86,0.00,,,0.00,0.00,VWS V14.01,2013-05-03 08:51:00,
2013-05-03 04:56:00,48.2,44.2,29.99,NNE,27,0.0,0.0,86,0.00,,,0.00,0.00,VWS V14.01,2013-05-03 08:56:00,
2013-05-03 05:01:00,48.0,44.0,29.99,NNE,14,0.0,0.0,86,0.00,,,0.00,0.00,VWS V14.01,2013-05-03 09:01:00,
2013-05-03 05:07:00,48.0,44.0,29.99,NNE,28,0.0,0.0,86,0.00,,,0.00,0.00,VWS V14.01,2013-05-03 09:07:00,
2013-05-03 05:12:00,48.0,44.3,29.99,NNE,28,0.0,0.0,87,0.00,,,0.00,0.00,VWS V14.01,2013-05-03 09:12:00,
2013-05-03 05:18:00,47.9,44.2,29.99,NE,49,0.0,0.0,87,0.00,,,0.00,0.00,VWS V14.01,2013-05-03 09:18:00,
2013-05-03 05:24:00,48.0,44.3,30.00,ENE,58,0.0,0.0,87,0.00,,,0.00,0.00,VWS V14.01,2013-05-03 09:24:00,
2013-05-03 05:30:00,47.9,44.2,30.00,NNE,30,0.0,0.0,87,0.00,,,0.00,0.00,VWS V14.01,2013-05-03 09:30:00,
2013-05-03 05:35:00,47.9,44.2,30.00,NNE,28,0.0,0.0,87,0.00,,,0.00,0.00,VWS V14.01,2013-05-03 09:35:00,
2013-05-03 05:41:00,47.9,44.5,30.00,NNE,17,0.0,0.0,88,0.00,,,0.00,0.00,VWS V14.01,2013-05-03 09:41:00,
2013-05-03 05:47:00,47.9,44.5,30.00,NNE,23,0.0,0.0,88,0.00,,,0.00,0.00,VWS V14.01,2013-05-03 09:47:00,
2013-05-03 05:52:00,48.0,44.6,30.00,NNE,16,0.0,0.0,88,0.00,,,0.00,0.00,VWS V14.01,2013-05-03 09:52:00,
2013-05-03 05:57:00,47.9,44.5,30.00,NE,41,0.0,0.0,88,0.00,,,0.00,0.00,VWS V14.01,2013-05-03 09:57:00,
2013-05-03 06:03:00,47.9,44.5,30.00,North,3,0.0,0.0,88,0.00,,,0.00,0.00,VWS V14.01,2013-05-03 10:03:00,
2013-05-03 06:08:00,47.9,44.5,30.00,NNE,23,0.0,0.0,88,0.00,,,0.00,0.00,VWS V14.01,2013-05-03 10:08:00,
2013-05-03 06:14:00,47.9,44.5,30.00,NE,49,0.0,0.0,88,0.00,,,0.00,0.00,VWS V14.01,2013-05-03 10:14:00,
2013-05-03 06:19:00,47.9,44.5,30.00,NNE,21,0.0,0.0,88,0.00,,,0.00,0.00,VWS V14.01,2013-05-03 10:19:00,
2013-05-03 06:24:00,47.9,44.5,30.01,NNE,21,0.0,0.0,88,0.00,,,0.00,0.00,VWS V14.01,2013-05-03 10:24:00,
2013-05-03 06:30:00,47.7,44.3,30.01,NNE,21,0.0,0.0,88,0.00,,,0.00,0.00,VWS V14.01,2013-05-03 10:30:00,
2013-05-03 06:36:00,47.7,44.3,30.01,NNE,21,0.0,0.0,88,0.00,,,0.00,0.00,VWS V14.01,2013-05-03 10:36:00,
2013-05-03 06:41:00,47.7,44.3,30.01,NNE,23,0.0,0.0,88,0.00,,,0.00,5.00,VWS V14.01,2013-05-03 10:41:00,
2013-05-03 06:46:00,47.7,44.6,30.01,NNE,23,0.0,0.0,89,0.00,,,0.00,12.00,VWS V14.01,2013-05-03 10:46:00,
2013-05-03 06:52:00,47.7,44.6,30.01,NNE,23,0.0,0.0,89,0.00,,,0.00,18.00,VWS V14.01,2013-05-03 10:52:00,
2013-05-03 06:57:00,47.7,44.6,30.01,NNE,23,0.0,0.0,89,0.00,,,0.00,26.00,VWS V14.01,2013-05-03 10:57:00,
2013-05-03 07:02:00,47.7,44.6,30.01,NNE,23,0.0,0.0,89,0.00,,,0.00,26.00,VWS V14.01,2013-05-03 11:02:00,
2013-05-03 07:08:00,47.7,44.6,30.01,NNE,20,0.0,0.0,89,0.00,,,0.00,48.00,VWS V14.01,2013-05-03 11:08:00,
2013-05-03 07:13:00,47.7,44.6,30.01,NNE,23,0.0,0.0,89,0.00,,,0.00,65.00,VWS V14.01,2013-05-03 11:13:00,
2013-05-03 07:19:00,47.9,44.8,30.01,NNE,23,0.0,0.0,89,0.00,,,0.00,81.00,VWS V14.01,2013-05-03 11:19:00,
2013-05-03 07:24:00,48.0,44.9,30.02,NE,41,0.0,0.0,89,0.00,,,0.00,60.00,VWS V14.01,2013-05-03 11:24:00,
2013-05-03 07:30:00,48.3,45.2,30.02,NE,48,0.0,0.0,89,0.00,,,0.00,95.00,VWS V14.01,2013-05-03 11:30:00,
2013-05-03 07:35:00,48.5,45.1,30.02,NNW,335,0.0,0.0,88,0.00,,,0.00,123.00,VWS V14.01,2013-05-03 11:35:00,
2013-05-03 07:40:00,48.6,45.2,30.02,North,357,0.0,0.0,88,0.00,,,0.00,76.00,VWS V14.01,2013-05-03 11:40:00,
2013-05-03 07:46:00,48.8,45.4,30.02,NE,47,0.0,0.0,88,0.00,,,0.00,102.00,VWS V14.01,2013-05-03 11:46:00,
2013-05-03 07:51:00,48.8,45.1,30.02,North,0,0.0,0.0,87,0.00,,,0.00,130.00,VWS V14.01,2013-05-03 11:51:00,
2013-05-03 07:57:00,49.1,45.4,30.02,NE,41,0.0,0.0,87,0.00,,,0.00,202.00,VWS V14.01,2013-05-03 11:57:00,
2013-05-03 08:03:00,49.4,45.4,30.02,ENE,78,0.0,0.0,86,0.00,,,0.00,176.00,VWS V14.01,2013-05-03 12:03:00,
2013-05-03 08:09:00,49.5,45.2,30.03,NNE,18,0.0,0.0,85,0.00,,,0.00,201.00,VWS V14.01,2013-05-03 12:09:00,
2013-05-03 08:15:00,49.6,45.0,30.03,North,359,0.0,0.0,84,0.00,,,0.00,215.00,VWS V14.01,2013-05-03 12:15:00,
2013-05-03 08:20:00,49.9,45.0,30.03,NE,40,0.0,0.0,83,0.00,,,0.00,183.00,VWS V14.01,2013-05-03 12:20:00,
2013-05-03 08:26:00,50.1,45.2,30.03,NNE,17,0.0,0.0,83,0.00,,,0.00,426.00,VWS V14.01,2013-05-03 12:26:00,
2013-05-03 08:31:00,50.5,45.2,30.03,North,4,0.0,0.0,82,0.00,,,0.00,148.00,VWS V14.01,2013-05-03 12:31:00,
2013-05-03 08:37:00,50.4,44.8,30.04,North,4,0.0,0.0,81,0.00,,,0.00,201.00,VWS V14.01,2013-05-03 12:37:00,
2013-05-03 08:43:00,50.4,44.8,30.04,ENE,59,0.0,0.0,81,0.00,,,0.00,262.00,VWS V14.01,2013-05-03 12:43:00,
2013-05-03 08:49:00,50.5,44.9,30.04,NNE,31,0.0,0.0,81,0.00,,,0.00,234.00,VWS V14.01,2013-05-03 12:49:00,
2013-05-03 08:55:00,50.8,44.9,30.03,East,82,0.0,0.0,80,0.00,,,0.00,218.00,VWS V14.01,2013-05-03 12:55:00,
2013-05-03 09:01:00,51.0,44.7,30.03,NE,34,0.0,0.0,79,0.00,,,0.00,218.00,VWS V14.01,2013-05-03 13:01:00,
2013-05-03 09:07:00,51.1,44.2,30.04,North,0,0.0,0.0,77,0.00,,,0.00,195.00,VWS V14.01,2013-05-03 13:07:00,
2013-05-03 09:12:00,51.1,44.2,30.04,NE,49,0.0,0.0,77,0.00,,,0.00,475.00,VWS V14.01,2013-05-03 13:12:00,
2013-05-03 09:18:00,51.0,44.0,30.04,North,356,0.0,0.0,77,0.00,,,0.00,185.00,VWS V14.01,2013-05-03 13:18:00,
2013-05-03 09:23:00,51.1,44.2,30.05,North,6,0.0,0.0,77,0.00,,,0.00,246.00,VWS V14.01,2013-05-03 13:23:00,
2013-05-03 09:29:00,51.1,44.5,30.05,NNE,30,0.0,0.0,78,0.00,,,0.00,378.00,VWS V14.01,2013-05-03 13:29:00,
2013-05-03 09:35:00,51.7,44.4,30.05,North,1,0.0,0.0,76,0.00,,,0.00,535.00,VWS V14.01,2013-05-03 13:35:00,
2013-05-03 09:40:00,52.2,44.5,30.05,NE,54,0.0,0.0,75,0.00,,,0.00,535.00,VWS V14.01,2013-05-03 13:40:00,
2013-05-03 09:46:00,52.0,43.6,30.05,NE,41,0.0,0.0,73,0.00,,,0.00,259.00,VWS V14.01,2013-05-03 13:46:00,
2013-05-03 09:51:00,52.0,44.0,30.05,NE,49,0.0,0.0,74,0.00,,,0.00,259.00,VWS V14.01,2013-05-03 13:51:00,
2013-05-03 09:56:00,52.3,44.3,30.05,NNE,23,0.0,0.0,74,0.00,,,0.00,473.00,VWS V14.01,2013-05-03 13:56:00,
2013-05-03 10:02:00,52.5,44.1,30.05,NNE,31,0.0,0.0,73,0.00,,,0.00,503.00,VWS V14.01,2013-05-03 14:02:00,
2013-05-03 10:07:00,52.3,43.9,30.05,NNW,344,0.0,0.0,73,0.00,,,0.00,500.00,VWS V14.01,2013-05-03 14:07:00,
2013-05-03 10:13:00,52.5,43.4,30.05,North,7,0.0,0.0,71,0.00,,,0.00,457.00,VWS V14.01,2013-05-03 14:13:00,
2013-05-03 10:18:00,53.1,44.3,30.05,NE,51,0.0,0.0,72,0.00,,,0.00,521.00,VWS V14.01,2013-05-03 14:18:00,
2013-05-03 10:24:00,52.9,43.4,30.05,NNE,28,0.0,0.0,70,0.00,,,0.00,475.00,VWS V14.01,2013-05-03 14:24:00,
2013-05-03 10:30:00,53.1,43.6,30.05,North,0,0.0,0.0,70,0.00,,,0.00,496.00,VWS V14.01,2013-05-03 14:30:00,
2013-05-03 10:35:00,53.3,43.8,30.05,NE,49,0.0,0.0,70,0.00,,,0.00,507.00,VWS V14.01,2013-05-03 14:35:00,
2013-05-03 10:41:00,53.6,43.7,30.05,ESE,119,0.0,0.0,69,0.00,,,0.00,459.00,VWS V14.01,2013-05-03 14:41:00,
2013-05-03 10:46:00,53.6,43.7,30.05,NE,40,0.0,0.0,69,0.00,,,0.00,391.00,VWS V14.01,2013-05-03 14:46:00,
2013-05-03 10:51:00,54.4,44.8,30.05,NNE,18,0.0,0.0,70,0.00,,,0.00,547.00,VWS V14.01,2013-05-03 14:51:00,
2013-05-03 10:56:00,54.4,44.5,30.05,NNE,31,0.0,0.0,69,0.00,,,0.00,547.00,VWS V14.01,2013-05-03 14:56:00,
2013-05-03 11:02:00,54.4,44.1,30.05,North,7,0.0,0.0,68,0.00,,,0.00,547.00,VWS V14.01,2013-05-03 15:02:00,
2013-05-03 11:07:00,54.1,44.2,30.05,North,0,0.0,0.0,69,0.00,,,0.00,528.00,VWS V14.01,2013-05-03 15:07:00,
2013-05-03 11:12:00,54.4,43.7,30.05,North,354,0.0,0.0,67,0.00,,,0.00,461.00,VWS V14.01,2013-05-03 15:12:00,
2013-05-03 11:18:00,53.9,44.0,30.05,NNE,25,0.0,0.0,69,0.00,,,0.00,542.00,VWS V14.01,2013-05-03 15:18:00,
2013-05-03 11:23:00,53.8,43.1,30.05,NNE,20,0.0,0.0,67,0.00,,,0.00,519.00,VWS V14.01,2013-05-03 15:23:00,
2013-05-03 11:29:00,53.9,43.6,30.05,NE,52,0.0,0.0,68,0.00,,,0.00,466.00,VWS V14.01,2013-05-03 15:29:00,
2013-05-03 11:34:00,53.8,43.5,30.05,North,0,0.0,0.0,68,0.00,,,0.00,494.00,VWS V14.01,2013-05-03 15:34:00,
2013-05-03 11:39:00,53.2,43.3,30.06,ENE,72,0.0,0.0,69,0.00,,,0.00,512.00,VWS V14.01,2013-05-03 15:39:00,
2013-05-03 11:45:00,52.8,42.9,30.06,NE,35,0.0,0.0,69,0.00,,,0.00,491.00,VWS V14.01,2013-05-03 15:45:00,
2013-05-03 11:50:00,52.6,42.7,30.06,North,10,0.0,0.0,69,0.00,,,0.00,482.00,VWS V14.01,2013-05-03 15:50:00,
2013-05-03 11:56:00,52.9,43.0,30.06,NE,54,0.0,0.0,69,0.00,,,0.00,493.00,VWS V14.01,2013-05-03 15:56:00,
2013-05-03 12:01:00,53.1,42.8,30.06,NNE,25,0.0,0.0,68,0.00,,,0.00,472.00,VWS V14.01,2013-05-03 16:01:00,
2013-05-03 12:06:00,52.9,42.3,30.06,North,0,0.0,0.0,67,0.00,,,0.00,473.00,VWS V14.01,2013-05-03 16:06:00,
2013-05-03 12:11:00,52.6,42.0,30.06,North,357,0.0,0.0,67,0.00,,,0.00,484.00,VWS V14.01,2013-05-03 16:11:00,
2013-05-03 12:17:00,52.8,42.2,30.06,NE,35,0.0,0.0,67,0.00,,,0.00,507.00,VWS V14.01,2013-05-03 16:17:00,
2013-05-03 12:22:00,53.3,42.6,30.06,North,8,0.0,0.0,67,0.00,,,0.00,523.00,VWS V14.01,2013-05-03 16:22:00,
2013-05-03 12:27:00,53.5,42.4,30.06,North,0,0.0,0.0,66,0.00,,,0.00,528.00,VWS V14.01,2013-05-03 16:27:00,
2013-05-03 12:32:00,53.8,42.7,30.06,ENE,73,0.0,0.0,66,0.00,,,0.00,526.00,VWS V14.01,2013-05-03 16:32:00,
2013-05-03 12:37:00,54.7,44.0,30.05,NNE,31,0.0,0.0,67,0.00,,,0.00,552.00,VWS V14.01,2013-05-03 16:37:00,
2013-05-03 12:42:00,55.0,43.5,30.05,NNE,20,0.0,0.0,65,0.00,,,0.00,523.00,VWS V14.01,2013-05-03 16:42:00,
2013-05-03 12:48:00,55.3,42.9,30.05,NE,49,0.0,0.0,63,0.00,,,0.00,556.00,VWS V14.01,2013-05-03 16:48:00,
2013-05-03 12:54:00,55.0,43.1,30.04,East,79,0.0,0.0,64,0.00,,,0.00,494.00,VWS V14.01,2013-05-03 16:54:00,
2013-05-03 12:59:00,55.3,43.3,30.04,NE,40,0.0,0.0,64,0.00,,,0.00,482.00,VWS V14.01,2013-05-03 16:59:00,
2013-05-03 13:05:00,55.1,42.8,30.03,NNE,23,0.0,0.0,63,0.00,,,0.00,507.00,VWS V14.01,2013-05-03 17:05:00,
2013-05-03 13:11:00,55.0,43.1,30.03,ENE,58,0.0,0.0,64,0.00,,,0.00,570.00,VWS V14.01,2013-05-03 17:11:00,
2013-05-03 13:16:00,55.4,43.0,30.03,NE,37,0.0,0.0,63,0.00,,,0.00,558.00,VWS V14.01,2013-05-03 17:16:00,
2013-05-03 13:22:00,56.2,43.4,30.03,NNE,13,0.0,0.0,62,0.00,,,0.00,579.00,VWS V14.01,2013-05-03 17:22:00,
2013-05-03 13:27:00,56.7,43.8,30.03,NNE,27,0.0,0.0,62,0.00,,,0.00,549.00,VWS V14.01,2013-05-03 17:27:00,
2013-05-03 13:32:00,57.3,44.0,30.03,NNE,25,0.0,0.0,61,0.00,,,0.00,574.00,VWS V14.01,2013-05-03 17:32:00,
2013-05-03 13:38:00,57.2,43.0,30.02,North,0,0.0,0.0,59,0.00,,,0.00,570.00,VWS V14.01,2013-05-03 17:38:00,
2013-05-03 13:43:00,57.3,43.5,30.02,North,0,0.0,0.0,60,0.00,,,0.00,577.00,VWS V14.01,2013-05-03 17:43:00,
2013-05-03 13:49:00,57.0,43.3,30.02,North,0,0.0,0.0,60,0.00,,,0.00,533.00,VWS V14.01,2013-05-03 17:49:00,
2013-05-03 13:55:00,57.0,44.1,30.02,NE,47,0.0,0.0,62,0.00,,,0.00,551.00,VWS V14.01,2013-05-03 17:55:00,
2013-05-03 14:01:00,57.3,43.5,30.02,NNE,32,0.0,0.0,60,0.00,,,0.00,558.00,VWS V14.01,2013-05-03 18:01:00,
2013-05-03 14:07:00,57.5,44.2,30.01,NE,42,0.0,0.0,61,0.00,,,0.00,575.00,VWS V14.01,2013-05-03 18:07:00,
2013-05-03 14:13:00,58.1,43.9,30.01,NNE,21,0.0,0.0,59,0.00,,,0.00,544.00,VWS V14.01,2013-05-03 18:13:00,
2013-05-03 14:19:00,57.8,43.6,30.01,East,82,0.0,0.0,59,0.00,,,0.00,547.00,VWS V14.01,2013-05-03 18:19:00,
2013-05-03 14:24:00,57.8,44.0,30.01,NNE,14,0.0,0.0,60,0.00,,,0.00,542.00,VWS V14.01,2013-05-03 18:24:00,
2013-05-03 14:30:00,58.0,43.3,30.01,North,7,0.0,0.0,58,0.00,,,0.00,524.00,VWS V14.01,2013-05-03 18:30:00,
2013-05-03 14:36:00,58.1,43.9,30.01,NNE,25,0.0,0.0,59,0.00,,,0.00,496.00,VWS V14.01,2013-05-03 18:36:00,
2013-05-03 14:42:00,58.3,44.5,30.01,North,8,0.0,0.0,60,0.00,,,0.00,496.00,VWS V14.01,2013-05-03 18:42:00,
2013-05-03 14:48:00,58.3,44.0,30.01,North,0,0.0,0.0,59,0.00,,,0.00,505.00,VWS V14.01,2013-05-03 18:48:00,
2013-05-03 14:53:00,58.4,45.0,30.00,North,10,0.0,0.0,61,0.00,,,0.00,435.00,VWS V14.01,2013-05-03 18:53:00,
2013-05-03 14:58:00,58.6,45.2,30.00,ENE,75,0.0,0.0,61,0.00,,,0.00,489.00,VWS V14.01,2013-05-03 18:58:00,
2013-05-03 15:04:00,58.7,44.0,30.00,North,4,0.0,0.0,58,0.00,,,0.00,475.00,VWS V14.01,2013-05-03 19:04:00,
2013-05-03 15:09:00,58.6,44.3,30.00,NNE,17,0.0,0.0,59,0.00,,,0.00,450.00,VWS V14.01,2013-05-03 19:09:00,
2013-05-03 15:14:00,58.4,44.1,30.00,North,3,0.0,0.0,59,0.00,,,0.00,450.00,VWS V14.01,2013-05-03 19:14:00,
2013-05-03 15:19:00,58.3,43.6,30.00,North,0,0.0,0.0,58,0.00,,,0.00,433.00,VWS V14.01,2013-05-03 19:19:00,
2013-05-03 15:25:00,58.3,43.6,30.00,North,3,0.0,0.0,58,0.00,,,0.00,447.00,VWS V14.01,2013-05-03 19:25:00,
2013-05-03 15:30:00,58.4,44.1,30.00,NE,38,0.0,0.0,59,0.00,,,0.00,442.00,VWS V14.01,2013-05-03 19:30:00,
2013-05-03 15:35:00,58.7,44.4,29.99,NNW,344,0.0,0.0,59,0.00,,,0.00,449.00,VWS V14.01,2013-05-03 19:35:00,
2013-05-03 15:40:00,58.6,44.3,29.99,North,10,0.0,0.0,59,0.00,,,0.00,422.00,VWS V14.01,2013-05-03 19:40:00,
2013-05-03 15:46:00,58.6,43.9,29.99,NE,51,0.0,0.0,58,0.00,,,0.00,443.00,VWS V14.01,2013-05-03 19:46:00,
2013-05-03 15:52:00,58.9,44.2,29.98,North,8,0.0,0.0,58,0.00,,,0.00,435.00,VWS V14.01,2013-05-03 19:52:00,
2013-05-03 15:57:00,58.9,44.2,29.98,NNE,17,0.0,0.0,58,0.00,,,0.00,421.00,VWS V14.01,2013-05-03 19:57:00,
2013-05-03 16:03:00,58.9,44.2,29.98,North,359,0.0,0.0,58,0.00,,,0.00,422.00,VWS V14.01,2013-05-03 20:03:00,
2013-05-03 16:09:00,59.0,44.3,29.98,NE,51,0.0,0.0,58,0.00,,,0.00,429.00,VWS V14.01,2013-05-03 20:09:00,
2013-05-03 16:14:00,59.3,45.4,29.98,NNE,32,0.0,0.0,60,0.00,,,0.00,431.00,VWS V14.01,2013-05-03 20:14:00,
2013-05-03 16:19:00,59.5,45.6,29.98,NE,45,0.0,0.0,60,0.00,,,0.00,447.00,VWS V14.01,2013-05-03 20:19:00,
2013-05-03 16:25:00,59.8,45.5,29.97,North,7,0.0,0.0,59,0.00,,,0.00,450.00,VWS V14.01,2013-05-03 20:25:00,
2013-05-03 16:30:00,59.3,45.4,29.97,NE,52,0.0,0.0,60,0.00,,,0.00,443.00,VWS V14.01,2013-05-03 20:30:00,
2013-05-03 16:35:00,59.2,45.8,29.97,NE,48,0.0,0.0,61,0.00,,,0.00,435.00,VWS V14.01,2013-05-03 20:35:00,
2013-05-03 16:41:00,59.2,45.8,29.97,East,88,0.0,0.0,61,0.00,,,0.00,421.00,VWS V14.01,2013-05-03 20:41:00,
2013-05-03 16:47:00,59.3,45.9,29.97,NE,38,0.0,0.0,61,0.00,,,0.00,398.00,VWS V14.01,2013-05-03 20:47:00,
2013-05-03 16:53:00,59.6,46.2,29.97,NNW,330,0.0,0.0,61,0.00,,,0.00,385.00,VWS V14.01,2013-05-03 20:53:00,
2013-05-03 16:58:00,59.6,46.2,29.97,ENE,72,0.0,0.0,61,0.00,,,0.00,359.00,VWS V14.01,2013-05-03 20:58:00,
2013-05-03 17:03:00,59.8,45.9,29.97,NNE,17,0.0,0.0,60,0.00,,,0.00,338.00,VWS V14.01,2013-05-03 21:03:00,
2013-05-03 17:08:00,59.5,46.5,29.96,North,357,0.0,0.0,62,0.00,,,0.00,315.00,VWS V14.01,2013-05-03 21:08:00,
2013-05-03 17:13:00,59.0,46.0,29.96,NNE,13,0.0,0.0,62,0.00,,,0.00,271.00,VWS V14.01,2013-05-03 21:13:00,
2013-05-03 17:18:00,58.9,45.9,29.96,NNE,16,0.0,0.0,62,0.00,,,0.00,269.00,VWS V14.01,2013-05-03 21:18:00,
2013-05-03 17:24:00,58.6,46.1,29.97,East,99,0.0,0.0,63,0.00,,,0.00,274.00,VWS V14.01,2013-05-03 21:24:00,
2013-05-03 17:29:00,58.9,46.3,29.97,ENE,65,0.0,0.0,63,0.00,,,0.00,257.00,VWS V14.01,2013-05-03 21:29:00,
2013-05-03 17:34:00,58.7,46.2,29.97,NE,42,0.0,0.0,63,0.00,,,0.00,238.00,VWS V14.01,2013-05-03 21:34:00,
2013-05-03 17:40:00,58.6,46.1,29.97,North,0,0.0,0.0,63,0.00,,,0.00,222.00,VWS V14.01,2013-05-03 21:40:00,
2013-05-03 17:46:00,58.6,46.5,29.97,NNE,30,0.0,0.0,64,0.00,,,0.00,216.00,VWS V14.01,2013-05-03 21:46:00,
2013-05-03 17:52:00,58.3,46.6,29.97,NNE,31,0.0,0.0,65,0.00,,,0.00,211.00,VWS V14.01,2013-05-03 21:52:00,
2013-05-03 17:58:00,58.1,46.4,29.97,NE,34,0.0,0.0,65,0.00,,,0.00,211.00,VWS V14.01,2013-05-03 21:58:00,
2013-05-03 18:04:00,58.0,46.3,29.97,NE,56,0.0,0.0,65,0.00,,,0.00,223.00,VWS V14.01,2013-05-03 22:04:00,
2013-05-03 18:09:00,57.8,46.1,29.97,NE,38,0.0,0.0,65,0.00,,,0.00,218.00,VWS V14.01,2013-05-03 22:09:00,
2013-05-03 18:14:00,57.8,46.5,29.97,NNE,32,0.0,0.0,66,0.00,,,0.00,227.00,VWS V14.01,2013-05-03 22:14:00,
2013-05-03 18:19:00,57.6,46.7,29.97,North,10,0.0,0.0,67,0.00,,,0.00,246.00,VWS V14.01,2013-05-03 22:19:00,
2013-05-03 18:24:00,57.8,46.9,29.97,North,11,0.0,0.0,67,0.00,,,0.00,204.00,VWS V14.01,2013-05-03 22:24:00,
2013-05-03 18:29:00,57.6,46.7,29.97,NE,56,0.0,0.0,67,0.00,,,0.00,174.00,VWS V14.01,2013-05-03 22:29:00,
2013-05-03 18:35:00,57.6,47.1,29.96,NE,49,0.0,0.0,68,0.00,,,0.00,158.00,VWS V14.01,2013-05-03 22:35:00,
2013-05-03 18:40:00,57.6,46.7,29.96,NNE,20,0.0,0.0,67,0.00,,,0.00,146.00,VWS V14.01,2013-05-03 22:40:00,
2013-05-03 18:45:00,57.3,46.5,29.96,North,6,0.0,0.0,67,0.00,,,0.00,135.00,VWS V14.01,2013-05-03 22:45:00,
2013-05-03 18:50:00,57.3,46.8,29.96,NE,38,0.0,0.0,68,0.00,,,0.00,125.00,VWS V14.01,2013-05-03 22:50:00,
2013-05-03 18:56:00,57.0,46.6,29.96,NNE,32,0.0,0.0,68,0.00,,,0.00,114.00,VWS V14.01,2013-05-03 22:56:00,
2013-05-03 19:01:00,57.0,46.9,29.96,NE,56,0.0,0.0,69,0.00,,,0.00,106.00,VWS V14.01,2013-05-03 23:01:00,
2013-05-03 19:06:00,56.9,46.8,29.96,ENE,65,0.0,0.0,69,0.00,,,0.00,93.00,VWS V14.01,2013-05-03 23:06:00,
2013-05-03 19:11:00,56.9,46.8,29.96,NNE,28,0.0,0.0,69,0.00,,,0.00,83.00,VWS V14.01,2013-05-03 23:11:00,
2013-05-03 19:17:00,56.7,46.7,29.96,NNE,18,0.0,0.0,69,0.00,,,0.00,72.00,VWS V14.01,2013-05-03 23:17:00,
2013-05-03 19:22:00,56.6,46.9,29.95,North,0,0.0,0.0,70,0.00,,,0.00,62.00,VWS V14.01,2013-05-03 23:22:00,
2013-05-03 19:27:00,56.5,46.8,29.95,NE,55,0.0,0.0,70,0.00,,,0.00,53.00,VWS V14.01,2013-05-03 23:27:00,
2013-05-03 19:32:00,56.5,47.2,29.95,ENE,59,0.0,0.0,71,0.00,,,0.00,46.00,VWS V14.01,2013-05-03 23:32:00,
2013-05-03 19:37:00,56.3,47.0,29.95,NNE,13,0.0,0.0,71,0.00,,,0.00,40.00,VWS V14.01,2013-05-03 23:37:00,
2013-05-03 19:43:00,56.2,47.3,29.95,North,0,0.0,0.0,72,0.00,,,0.00,30.00,VWS V14.01,2013-05-03 23:43:00,
2013-05-03 19:48:00,56.0,47.5,29.95,NE,37,0.0,0.0,73,0.00,,,0.00,25.00,VWS V14.01,2013-05-03 23:48:00,
2013-05-03 19:53:00,56.0,47.5,29.96,NE,42,0.0,0.0,73,0.00,,,0.00,16.00,VWS V14.01,2013-05-03 23:53:00,
2013-05-03 19:59:00,55.9,47.4,29.96,NE,40,0.0,0.0,73,0.00,,,0.00,11.00,VWS V14.01,2013-05-03 23:59:00,
2013-05-03 20:04:00,55.7,47.2,29.96,NNE,32,0.0,0.0,73,0.00,,,0.00,7.00,VWS V14.01,2013-05-04 00:04:00,
2013-05-03 20:09:00,55.6,47.1,29.96,NE,44,0.0,0.0,73,0.00,,,0.00,0.00,VWS V14.01,2013-05-04 00:09:00,
2013-05-03 20:14:00,55.6,47.5,29.96,NE,42,0.0,0.0,74,0.00,,,0.00,0.00,VWS V14.01,2013-05-04 00:14:00,
2013-05-03 20:19:00,55.4,47.3,29.96,North,1,0.0,0.0,74,0.00,,,0.00,0.00,VWS V14.01,2013-05-04 00:19:00,
2013-05-03 20:25:00,55.3,47.2,29.95,NE,55,0.0,0.0,74,0.00,,,0.00,0.00,VWS V14.01,2013-05-04 00:25:00,
2013-05-03 20:30:00,55.3,47.5,29.95,NNE,23,0.0,0.0,75,0.00,,,0.00,0.00,VWS V14.01,2013-05-04 00:30:00,
2013-05-03 20:36:00,55.1,47.3,29.95,NNW,343,0.0,0.0,75,0.00,,,0.00,0.00,VWS V14.01,2013-05-04 00:36:00,
2013-05-03 20:42:00,55.1,47.7,29.95,NNE,23,0.0,0.0,76,0.00,,,0.00,0.00,VWS V14.01,2013-05-04 00:42:00,
2013-05-03 20:48:00,55.0,47.6,29.95,North,10,0.0,0.0,76,0.00,,,0.00,0.00,VWS V14.01,2013-05-04 00:48:00,
2013-05-03 20:53:00,55.0,47.6,29.96,NE,51,0.0,0.0,76,0.00,,,0.00,0.00,VWS V14.01,2013-05-04 00:53:00,
2013-05-03 20:58:00,55.0,47.6,29.96,NNE,14,0.0,0.0,76,0.00,,,0.00,0.00,VWS V14.01,2013-05-04 00:58:00,
2013-05-03 21:03:00,55.0,47.6,29.96,North,7,0.0,0.0,76,0.00,,,0.00,0.00,VWS V14.01,2013-05-04 01:03:00,
2013-05-03 21:09:00,55.0,47.6,29.96,NE,51,0.0,0.0,76,0.00,,,0.00,0.00,VWS V14.01,2013-05-04 01:09:00,
2013-05-03 21:15:00,55.0,47.6,29.96,NE,51,0.0,0.0,76,0.00,,,0.00,0.00,VWS V14.01,2013-05-04 01:15:00,
2013-05-03 21:20:00,54.8,47.4,29.96,NNE,27,0.0,0.0,76,0.00,,,0.00,0.00,VWS V14.01,2013-05-04 01:20:00,
2013-05-03 21:26:00,54.8,47.4,29.96,NNE,28,0.0,0.0,76,0.00,,,0.00,0.00,VWS V14.01,2013-05-04 01:26:00,
2013-05-03 21:31:00,54.8,47.7,29.96,NNE,24,0.0,0.0,77,0.00,,,0.00,0.00,VWS V14.01,2013-05-04 01:31:00,
2013-05-03 21:37:00,54.8,47.7,29.96,NE,44,0.0,0.0,77,0.00,,,0.00,0.00,VWS V14.01,2013-05-04 01:37:00,
2013-05-03 21:42:00,54.7,47.6,29.96,North,0,0.0,0.0,77,0.00,,,0.00,0.00,VWS V14.01,2013-05-04 01:42:00,
2013-05-03 21:47:00,54.7,47.6,29.96,NNE,27,0.0,0.0,77,0.00,,,0.00,0.00,VWS V14.01,2013-05-04 01:47:00,
2013-05-03 21:53:00,54.8,47.7,29.96,NNE,23,0.0,0.0,77,0.00,,,0.00,0.00,VWS V14.01,2013-05-04 01:53:00,
2013-05-03 21:59:00,54.8,47.7,29.96,North,0,0.0,0.0,77,0.00,,,0.00,0.00,VWS V14.01,2013-05-04 01:59:00,
2013-05-03 22:04:00,54.8,47.4,29.96,NNE,32,0.0,0.0,76,0.00,,,0.00,0.00,VWS V14.01,2013-05-04 02:04:00,
2013-05-03 22:10:00,54.7,46.9,29.97,North,3,0.0,0.0,75,0.00,,,0.00,0.00,VWS V14.01,2013-05-04 02:10:00,
2013-05-03 22:15:00,54.5,46.4,29.97,NNE,24,0.0,0.0,74,0.00,,,0.00,0.00,VWS V14.01,2013-05-04 02:15:00,
2013-05-03 22:21:00,54.4,45.2,29.96,North,3,0.0,0.0,71,0.00,,,0.00,0.00,VWS V14.01,2013-05-04 02:21:00,
2013-05-03 22:26:00,54.2,44.3,29.96,NE,37,0.0,0.0,69,0.00,,,0.00,0.00,VWS V14.01,2013-05-04 02:26:00,
2013-05-03 22:32:00,54.1,43.4,29.96,NNE,16,0.0,0.0,67,0.00,,,0.00,0.00,VWS V14.01,2013-05-04 02:32:00,
2013-05-03 22:37:00,53.9,43.2,29.96,North,357,0.0,0.0,67,0.00,,,0.00,0.00,VWS V14.01,2013-05-04 02:37:00,
2013-05-03 22:43:00,53.6,42.9,29.96,NE,42,0.0,0.0,67,0.00,,,0.00,0.00,VWS V14.01,2013-05-04 02:43:00,
2013-05-03 22:48:00,53.5,42.4,29.96,NNE,32,0.0,0.0,66,0.00,,,0.00,0.00,VWS V14.01,2013-05-04 02:48:00,
2013-05-03 22:54:00,53.2,42.2,29.97,NNE,24,0.0,0.0,66,0.00,,,0.00,0.00,VWS V14.01,2013-05-04 02:54:00,
2013-05-03 23:00:00,52.9,41.9,29.97,NNE,21,0.0,0.0,66,0.00,,,0.00,0.00,VWS V14.01,2013-05-04 03:00:00,
2013-05-03 23:05:00,52.8,41.8,29.97,North,8,0.0,0.0,66,0.00,,,0.00,0.00,VWS V14.01,2013-05-04 03:05:00,
2013-05-03 23:11:00,52.6,41.2,29.97,ENE,65,0.0,0.0,65,0.00,,,0.00,0.00,VWS V14.01,2013-05-04 03:11:00,
2013-05-03 23:16:00,52.3,40.5,29.97,NE,45,0.0,0.0,64,0.00,,,0.00,0.00,VWS V14.01,2013-05-04 03:16:00,
2013-05-03 23:21:00,52.2,40.4,29.97,NNE,24,0.0,0.0,64,0.00,,,0.00,0.00,VWS V14.01,2013-05-04 03:21:00,
2013-05-03 23:27:00,51.7,39.5,29.97,NE,38,0.0,0.0,63,0.00,,,0.00,0.00,VWS V14.01,2013-05-04 03:27:00,
2013-05-03 23:32:00,51.6,39.8,29.97,ENE,65,0.0,0.0,64,0.00,,,0.00,0.00,VWS V14.01,2013-05-04 03:32:00,
2013-05-03 23:38:00,51.3,39.5,29.96,NNE,31,0.0,0.0,64,0.00,,,0.00,0.00,VWS V14.01,2013-05-04 03:38:00,
2013-05-03 23:43:00,51.0,39.7,29.96,NNE,17,0.0,0.0,65,0.00,,,0.00,0.00,VWS V14.01,2013-05-04 03:43:00,
2013-05-03 23:49:00,50.7,39.8,29.96,NE,40,0.0,0.0,66,0.00,,,0.00,0.00,VWS V14.01,2013-05-04 03:49:00,
2013-05-03 23:54:00,50.4,39.5,29.97,NE,34,0.0,0.0,66,0.00,,,0.00,0.00,VWS V14.01,2013-05-04 03:54:00,